Weather History for Greenville, AL

Change the Weather History Date:

Friday, November 15, 2013

  Actual Average Record
Temperature  
Mean Temperature 58 °F -  
Max Temperature 66 °F 68 °F 85 °F (1955)
Min Temperature 51 °F 44 °F 19 °F (1969)
Degree Days  
Heating Degree Days 6    
Growing Degree Days 8 (Base 50)    
Moisture  
Dew Point 54 °F    
Average Humidity 84    
Maximum Humidity 96    
Minimum Humidity 70    
Precipitation  
Precipitation 0.19 in - - ()
Sea Level Pressure  
Sea Level Pressure 30.13 in    
Wind  
Wind Speed 6 mph (ESE)    
Max Wind Speed 12 mph    
Max Gust Speed 16 mph    
Visibility 8 miles    
Events Rain    
Averages and records for this station are not official NWS values.
T = Trace of Precipitation, MM = Missing Value Source: NWS Daily Summary

Daily Weather History Graph

Daily Weather History Graph

Search for Another Location

Airport:

Trip Planner

Search our weather history database for the weather conditions in past years. The results will help you decide how hot, cold, wet, or windy it might be!

Date:

Astronomy

Nov. 15, 2013 Rise Set
Actual Time 6:15 AM CST 4:46 PM CST
Civil Twilight 5:49 AM CST 5:12 PM CST
Nautical Twilight 5:19 AM CST 5:42 PM CST
Astronomical Twilight 4:50 AM CST 6:11 PM CST
Moon 3:38 PM CST (11/15) 4:17 AM CST (11/15)
Length of Visible Light 11h 23m
Length of Day
10h 31m
Waxing Gibbous, 96% of the Moon is Illuminated
Nov 15
Waxing Gibbous
Nov 17
Full
Nov 25
Last Quarter
Dec 2
New
Dec 9
First Quarter

Hourly Weather History & Observations

Time (CST) Temp. Dew Point Humidity Pressure Visibility Wind Dir Wind Speed Gust Speed Precip Events Conditions
12:56 AM 51.1 °F 42.1 °F 71% 30.20 in 10.0 mi ESE 4.6 mph - N/A   Scattered Clouds
1:56 AM 52.0 °F 43.0 °F 71% 30.18 in 10.0 mi ESE 5.8 mph - N/A   Partly Cloudy
2:56 AM 53.1 °F 44.1 °F 71% 30.18 in 10.0 mi ESE 4.6 mph - N/A   Overcast
3:56 AM 54.0 °F 45.0 °F 72% 30.18 in 10.0 mi ESE 4.6 mph - N/A   Overcast
4:56 AM 54.0 °F 46.0 °F 75% 30.18 in 10.0 mi ESE 6.9 mph - N/A   Scattered Clouds
5:56 AM 54.0 °F 46.9 °F 77% 30.18 in 10.0 mi ESE 6.9 mph - N/A   Clear
6:56 AM 54.0 °F 48.0 °F 80% 30.17 in 10.0 mi ESE 6.9 mph - N/A   Partly Cloudy
7:56 AM 55.9 °F 48.9 °F 77% 30.18 in 10.0 mi ESE 5.8 mph - N/A   Overcast
8:56 AM 57.0 °F 51.1 °F 81% 30.19 in 10.0 mi ESE 5.8 mph - 0.00 in   Overcast
9:56 AM 57.9 °F 52.0 °F 81% 30.17 in 10.0 mi SE 8.1 mph - N/A   Mostly Cloudy
10:56 AM 62.1 °F 53.1 °F 72% 30.14 in 10.0 mi SE 8.1 mph - N/A   Mostly Cloudy
11:56 AM 64.0 °F 54.0 °F 70% 30.10 in 10.0 mi SSE 8.1 mph - N/A   Overcast
12:56 PM 64.0 °F 55.9 °F 75% 30.07 in 10.0 mi SSE 10.4 mph - N/A   Overcast
1:56 PM 66.0 °F 55.9 °F 70% 30.05 in 10.0 mi SSE 11.5 mph 16.1 mph N/A   Overcast
2:56 PM 64.0 °F 55.9 °F 75% 30.07 in 10.0 mi South 6.9 mph - 0.00 in   Overcast
3:37 PM 62.6 °F 59.0 °F 88% 30.09 in 2.5 mi North 5.8 mph - 0.03 in Rain Rain
3:48 PM 60.8 °F 59.0 °F 94% 30.10 in 4.0 mi North 5.8 mph - 0.04 in Rain Light Rain
3:56 PM 61.0 °F 59.0 °F 93% 30.09 in 2.5 mi NNE 3.5 mph - 0.06 in Rain Rain
4:04 PM 60.8 °F 59.0 °F 94% 30.10 in 1.8 mi ENE 3.5 mph - 0.02 in Rain Heavy Rain
4:08 PM 60.8 °F 59.0 °F 94% 30.10 in 2.0 mi Calm Calm - 0.03 in Rain Light Rain
4:45 PM 60.8 °F 59.0 °F 94% 30.10 in 3.0 mi ENE 3.5 mph - 0.08 in Rain Rain
4:56 PM 60.1 °F 59.0 °F 96% 30.10 in 4.0 mi NE 3.5 mph - 0.08 in Rain Light Rain
5:10 PM 60.8 °F 59.0 °F 94% 30.10 in 5.0 mi ENE 4.6 mph - 0.01 in Rain Light Rain
5:43 PM 60.8 °F 59.0 °F 94% 30.10 in 6.0 mi East 4.6 mph - 0.02 in Rain Light Rain
5:56 PM 60.1 °F 59.0 °F 96% 30.10 in 7.0 mi ENE 4.6 mph - 0.02 in Rain Light Rain
6:41 PM 60.8 °F 57.2 °F 88% 30.10 in 5.0 mi East 6.9 mph - 0.03 in Rain Rain
7:56 PM 60.1 °F 57.9 °F 93% 30.11 in 9.0 mi East 5.8 mph - 0.00 in   Overcast
8:56 PM 60.1 °F 57.9 °F 93% 30.12 in 4.0 mi Calm Calm - 0.02 in Rain Light Rain
9:35 PM 60.8 °F 57.2 °F 88% 30.12 in 7.0 mi East 5.8 mph - 0.01 in   Overcast
9:56 PM 60.1 °F 57.9 °F 93% 30.12 in 8.0 mi East 4.6 mph - 0.01 in   Overcast
10:56 PM 60.1 °F 57.9 °F 93% 30.12 in 10.0 mi ESE 4.6 mph - N/A   Overcast
11:56 PM 59.0 °F 57.0 °F 93% 30.12 in 10.0 mi ESE 3.5 mph - N/A   Overcast